GW5803 Weather Reports


Display with metric or nautical units.
time (UTC)temp
F
wind
direction
speed
MPH
gust
MPH
rain 1hr
in
rain 24hr
in
rain mn
in
humidity
%
barometer
mb
20260906044403 69 0 0.0 0.0 0.00 0.00 0.00 98 1015.2
20260906043858 69 0 0.0 0.0 0.00 0.00 0.00 98 1015.2
20260906043355 68 0 0.0 0.0 0.00 0.00 0.00 98 1015.4
20260906042855 68 0 0.0 0.0 0.00 0.00 0.00 98 1015.5
20260906042353 68 0 0.0 0.0 0.00 0.00 0.00 98 1015.5
20260906041849 68 0 0.0 0.0 0.00 0.00 0.00 98 1015.7
20260906041345 68 0 0.0 0.0 0.00 0.00 0.00 98 1015.6
20260906040845 68 0 0.0 0.0 0.00 0.00 0.00 98 1015.7
20260906040340 68 0 0.0 0.0 0.00 0.00 0.00 98 1015.7
20260906035835 69 0 0.0 0.0 0.00 0.06 0.06 98 1015.8
20260906035331 68 1 0.0 0.0 0.00 0.06 0.06 98 1015.7
20260906034827 68 2 0.0 0.0 0.00 0.06 0.06 98 1015.6
20260906034327 68 2 0.0 0.0 0.00 0.06 0.06 98 1015.6
20260906033823 68 2 0.0 0.0 0.00 0.06 0.06 98 1015.6
20260906033321 68 2 0.0 0.0 0.00 0.06 0.06 98 1015.5
20260906032818 69 2 0.0 0.0 0.00 0.06 0.06 98 1015.6
20260906032314 69 2 0.0 0.0 0.00 0.06 0.06 98 1015.4
20260906031809 69 2 0.0 0.0 0.00 0.06 0.06 98 1015.6
20260906031304 69 2 0.0 0.0 0.00 0.06 0.06 98 1015.5
20260906030804 69 2 0.0 0.0 0.00 0.06 0.06 98 1015.7
20260906030259 69 2 0.0 0.0 0.00 0.06 0.06 98 1015.5
20260906025759 69 2 0.0 0.0 0.00 0.06 0.06 98 1015.3
20260906025253 69 2 0.0 0.0 0.00 0.06 0.06 98 1015.4
20260906024752 69 2 0.0 0.0 0.00 0.06 0.06 98 1015.3
20260906024251 69 2 0.0 0.0 0.00 0.06 0.06 98 1015.4
20260906023747 69 2 0.0 0.0 0.00 0.06 0.06 98 1015.7
20260906023242 69 2 0.0 0.0 0.00 0.06 0.06 98 1015.6
20260906022738 69 3 0.0 0.0 0.00 0.06 0.06 98 1015.3
20260906022233 69 353 0.0 0.0 0.00 0.06 0.06 98 1015.1
20260906021729 69 353 0.0 0.0 0.00 0.06 0.06 98 1014.8
20260906021227 69 2 0.0 0.0 0.00 0.06 0.06 98 1014.9
20260906020723 69 2 0.0 0.0 0.00 0.06 0.06 98 1014.8
20260906020217 69 2 0.0 0.0 0.00 0.06 0.06 98 1014.7
20260906015712 69 1 0.0 0.0 0.00 0.06 0.06 98 1014.9
20260906015210 69 1 0.0 0.0 0.00 0.06 0.06 98 1014.8
20260906014710 69 1 0.0 0.0 0.00 0.06 0.06 97 1015.0
20260906014207 69 1 0.0 0.0 0.00 0.06 0.06 97 1014.8
20260906013702 69 2 0.0 0.0 0.00 0.06 0.06 97 1014.5
20260906013157 69 2 0.0 0.0 0.00 0.06 0.06 98 1014.5
20260906012657 69 2 0.0 0.0 0.00 0.06 0.06 98 1014.4
20260906012152 69 2 0.0 0.0 0.00 0.06 0.06 98 1014.4
20260906011648 70 2 0.0 0.0 0.00 0.06 0.06 97 1014.4
20260906011148 70 2 0.0 0.0 0.00 0.06 0.06 97 1014.5
20260906010643 70 2 0.0 0.0 0.00 0.06 0.06 96 1014.5
20260906010139 70 2 0.0 0.0 0.00 0.06 0.06 97 1014.5
20260906005639 71 2 0.0 0.0 0.00 0.06 0.06 96 1014.5
20260906005138 71 2 0.0 0.0 0.00 0.06 0.06 96 1014.5
20260906004637 71 2 0.0 0.0 0.00 0.06 0.06 95 1014.4
20260906004132 71 2 0.0 0.0 0.00 0.06 0.06 95 1014.4
20260906003627 71 2 0.0 0.0 0.00 0.06 0.06 95 1014.5
20260906003123 71 2 0.0 0.0 0.00 0.06 0.06 94 1014.5
20260906002618 72 3 0.0 0.0 0.00 0.06 0.06 94 1014.4
20260906002113 72 49 0.0 0.0 0.00 0.06 0.06 94 1014.6
20260906001609 73 50 0.0 0.0 0.00 0.06 0.06 95 1014.5
20260906001108 73 50 0.0 0.0 0.00 0.06 0.06 94 1014.7
20260906000605 73 50 0.0 0.0 0.00 0.06 0.06 94 1014.9
20260906000059 73 50 0.0 0.0 0.00 0.06 0.06 93 1014.8
20260905235558 74 50 0.0 0.0 0.00 0.06 0.06 92 1014.8
20260905235054 74 50 0.0 0.0 0.00 0.06 0.06 91 1015.0
20260905234549 74 76 0.0 0.0 0.00 0.06 0.06 90 1014.6
20260905234044 75 76 0.0 0.0 0.00 0.06 0.06 90 1014.9
20260905233544 75 75 0.0 0.0 0.00 0.06 0.06 90 1014.7
20260905233044 76 44 0.0 0.0 0.00 0.06 0.06 88 1014.7
20260905232539 76 108 0.0 0.0 0.00 0.06 0.06 86 1014.6
20260905232035 75 109 0.0 0.0 0.00 0.06 0.06 85 1014.4
20260905231530 75 63 0.0 0.0 0.00 0.06 0.06 86 1014.6
20260905231026 76 63 0.0 0.0 0.00 0.06 0.06 85 1014.0
20260905230525 76 62 0.0 0.0 0.00 0.06 0.06 85 1013.9
20260905230024 77 63 0.0 0.0 0.00 0.06 0.06 87 1014.1
20260905225519 77 62 0.0 0.0 0.00 0.06 0.06 85 1014.0
20260905225014 78 62 0.0 0.0 0.00 0.06 0.06 84 1014.1
20260905224509 77 61 0.0 0.0 0.00 0.06 0.06 85 1014.1
20260905224008 76 86 0.0 0.0 0.00 0.06 0.06 85 1014.0
20260905223506 76 140 0.0 0.0 0.00 0.06 0.06 86 1014.4
20260905223002 76 44 0.0 0.0 0.05 0.06 0.06 86 1014.5
20260905222501 75 44 0.0 0.0 0.05 0.06 0.06 87 1014.5
20260905221956 74 53 0.0 0.0 0.00 0.05 0.05 88 1014.7
20260905221453 74 69 0.0 0.0 0.00 0.05 0.05 90 1014.5
20260905220949 73 73 0.0 0.0 0.00 0.05 0.05 90 1014.6
20260905220445 72 34 0.0 0.0 0.00 0.05 0.05 92 1014.8
20260905215944 72 35 0.0 0.0 0.00 0.05 0.05 92 1014.7
20260905215440 72 59 0.0 0.0 0.00 0.05 0.05 91 1014.7
20260905214936 71 77 0.0 0.0 0.00 0.05 0.05 91 1014.7
20260905214432 72 349 1.0 2.0 0.00 0.05 0.05 93 1014.6
20260905213931 71 47 0.0 0.0 0.00 0.05 0.05 92 1014.6
20260905213428 71 62 0.0 1.0 0.00 0.05 0.05 92 1014.5
20260905212923 71 39 0.0 0.0 0.00 0.05 0.05 90 1014.5
20260905212417 71 49 0.0 0.0 0.00 0.05 0.05 92 1014.5
20260905211917 71 90 1.0 1.0 0.00 0.05 0.05 91 1014.7
20260905211413 72 321 2.0 2.0 0.00 0.05 0.05 89 1015.0
20260905210909 74 13 1.0 2.0 0.00 0.05 0.05 82 1015.0
20260905210408 72 39 0.0 0.0 0.00 0.05 0.05 85 1015.1
20260905205908 72 37 0.0 2.0 0.00 0.05 0.05 86 1015.1
20260905205403 72 355 4.0 6.0 0.00 0.05 0.05 85 1015.2
20260905204901 72 18 0.0 2.0 0.00 0.05 0.05 89 1015.3
20260905204358 73 45 1.0 5.0 0.00 0.05 0.05 85 1015.3
20260905203856 76 355 1.0 2.0 0.00 0.05 0.05 82 1015.5
20260905203352 77 34 7.0 8.0 0.00 0.05 0.05 78 1015.6
20260905202848 78 25 2.0 9.0 0.00 0.05 0.05 79 1015.3
20260905202342 79 19 5.0 7.0 0.00 0.05 0.05 78 1015.7
20260905201838 80 47 5.0 8.0 0.00 0.05 0.05 79 1015.7
20260905201334 80 17 7.0 14.0 0.00 0.05 0.05 80 1016.1
20260905200833 80 29 3.0 5.0 0.00 0.05 0.05 80 1016.4
20260905200330 78 84 0.0 3.0 0.00 0.05 0.05 83 1016.2
20260905195827 78 44 3.0 5.0 0.00 0.05 0.05 86 1016.1
20260905195323 77 27 1.0 2.0 0.00 0.05 0.05 87 1016.1
20260905194819 74 32 1.0 5.0 0.00 0.05 0.05 92 1016.1
20260905194318 74 126 1.0 2.0 0.07 0.05 0.05 96 1015.9
20260905193818 73 66 0.0 0.0 0.07 0.05 0.05 97 1016.2
20260905193313 73 54 0.0 1.0 0.05 0.04 0.04 97 1016.2
20260905192808 74 76 0.0 0.0 0.12 0.04 0.04 96 1016.4
20260905192306 75 199 1.0 2.0 0.14 0.03 0.03 94 1016.4
20260905191803 75 344 1.0 2.0 0.12 0.02 0.02 93 1016.9
20260905191302 75 25 3.0 8.0 0.05 0.01 0.01 91 1016.9
20260905190801 77 23 7.0 9.0 0.00 0.00 0.00 91 1016.8
20260905190300 82 54 8.0 20.0 0.00 0.00 0.00 85 1016.6
20260905185759 86 16 3.0 6.0 0.00 0.00 0.00 72 1015.8
20260905185254 87 14 3.0 6.0 0.00 0.00 0.00 69 1015.9
20260905184754 91 350 4.0 8.0 0.00 0.00 0.00 62 1016.1
20260905184253 93 359 1.0 2.0 0.00 0.00 0.00 60 1015.6
20260905183753 94 351 1.0 2.0 0.00 0.00 0.00 54 1015.6
20260905183248 90 4 3.0 5.0 0.00 0.00 0.00 59 1015.5
20260905182748 91 2 2.0 6.0 0.00 0.00 0.00 59 1015.7
20260905182247 93 10 0.0 0.0 0.00 0.00 0.00 58 1015.6
20260905181743 89 4 0.0 1.0 0.00 0.00 0.00 61 1015.7
20260905181242 89 2 1.0 2.0 0.00 0.00 0.00 66 1015.9
20260905180737 89 350 1.0 2.0 0.00 0.00 0.00 60 1016.1
20260905180232 88 6 3.0 3.0 0.00 0.00 0.00 63 1016.1
20260905175732 91 2 3.0 5.0 0.00 0.00 0.00 61 1016.2
20260905175227 92 358 0.0 2.0 0.00 0.00 0.00 58 1016.2
20260905174722 90 0 2.0 5.0 0.00 0.00 0.00 62 1016.3
20260905174218 90 358 4.0 5.0 0.00 0.00 0.00 65 1016.3
20260905173714 90 2 3.0 3.0 0.00 0.00 0.00 67 1016.5
20260905173210 87 6 1.0 2.0 0.00 0.00 0.00 67 1016.2
20260905172708 88 8 3.0 3.0 0.00 0.00 0.00 66 1016.1
20260905172203 91 2 4.0 7.0 0.00 0.00 0.00 61 1016.3
20260905171658 91 343 2.0 2.0 0.00 0.00 0.00 60 1016.4
20260905171154 90 345 0.0 0.0 0.00 0.00 0.00 62 1016.5
20260905170652 90 357 2.0 6.0 0.00 0.00 0.00 63 1016.6
20260905170146 89 356 1.0 1.0 0.00 0.00 0.00 65 1016.6
20260905165646 90 357 2.0 5.0 0.00 0.00 0.00 63 1016.6
20260905165141 89 349 1.0 2.0 0.00 0.00 0.00 68 1017.0
20260905164636 89 1 1.0 3.0 0.00 0.00 0.00 63 1017.0
20260905164135 88 359 1.0 3.0 0.00 0.00 0.00 65 1016.9
20260905163632 89 0 2.0 5.0 0.00 0.00 0.00 67 1017.1
20260905163128 88 0 0.0 2.0 0.00 0.00 0.00 67 1016.9
20260905162624 89 355 1.0 2.0 0.00 0.00 0.00 65 1017.0
20260905162123 88 356 1.0 1.0 0.00 0.00 0.00 64 1017.1
20260905161623 87 355 1.0 2.0 0.00 0.00 0.00 69 1017.2
20260905161121 86 3 1.0 3.0 0.00 0.00 0.00 69 1017.1
20260905160621 86 7 3.0 5.0 0.00 0.00 0.00 70 1017.1
20260905160115 84 355 1.0 2.0 0.00 0.00 0.00 74 1017.1
20260905155609 82 348 0.0 0.0 0.00 0.00 0.00 82 1017.2
20260905155108 81 358 0.0 0.0 0.00 0.00 0.00 83 1017.2
20260905154608 80 0 0.0 0.0 0.00 0.00 0.00 83 1017.3
20260905154104 80 2 0.0 0.0 0.00 0.00 0.00 82 1017.3
20260905153559 80 0 0.0 0.0 0.00 0.00 0.00 84 1017.3
20260905153054 80 2 0.0 0.0 0.00 0.00 0.00 83 1017.2
20260905152549 80 2 0.0 0.0 0.00 0.00 0.00 82 1017.2
20260905152044 80 2 0.0 0.0 0.00 0.00 0.00 83 1017.2
20260905151539 81 2 0.0 0.0 0.00 0.00 0.00 83 1017.3
20260905151035 81 0 0.0 0.0 0.00 0.00 0.00 81 1017.4
20260905150529 81 2 0.0 0.0 0.00 0.00 0.00 80 1017.4
20260905150028 82 2 0.0 0.0 0.00 0.00 0.00 78 1017.4
20260905145527 83 2 0.0 0.0 0.00 0.00 0.00 76 1017.4
20260905145026 83 2 2.0 2.0 0.00 0.00 0.00 73 1017.4
20260905144521 84 1 0.0 0.0 0.00 0.00 0.00 75 1017.4
20260905144020 83 1 0.0 0.0 0.00 0.00 0.00 76 1017.4
20260905143520 82 1 0.0 0.0 0.00 0.00 0.00 80 1017.4
20260905143015 81 1 0.0 0.0 0.00 0.00 0.00 79 1017.3
20260905142513 82 1 0.0 0.0 0.00 0.00 0.00 79 1017.6
20260905142009 83 1 0.0 0.0 0.00 0.00 0.00 75 1017.3
20260905141509 83 2 0.0 1.0 0.00 0.00 0.00 76 1017.4
20260905141006 83 1 1.0 2.0 0.00 0.00 0.00 75 1017.3
20260905140500 83 1 0.0 1.0 0.00 0.00 0.00 76 1017.7
20260905135959 82 0 2.0 2.0 0.00 0.00 0.00 74 1017.4
20260905135455 82 0 1.0 2.0 0.00 0.00 0.00 78 1017.4
20260905134950 82 355 0.0 2.0 0.00 0.00 0.00 74 1017.5
20260905134449 81 359 0.0 0.0 0.00 0.00 0.00 76 1017.4
20260905133949 81 0 0.0 0.0 0.00 0.00 0.00 80 1017.5
20260905133444 80 359 0.0 0.0 0.00 0.00 0.00 84 1017.6
20260905132943 79 0 0.0 0.0 0.00 0.00 0.00 87 1017.7
20260905132438 78 359 0.0 0.0 0.00 0.00 0.00 88 1017.5
20260905131933 78 0 0.0 0.0 0.00 0.00 0.00 90 1017.7
20260905131429 77 0 0.0 0.0 0.00 0.00 0.00 90 1017.6
20260905130924 77 0 0.0 0.0 0.00 0.00 0.00 90 1017.7
20260905130423 76 0 0.0 0.0 0.00 0.00 0.00 91 1017.6
20260905125923 75 0 0.0 0.0 0.00 0.00 0.00 92 1017.9
20260905125418 74 0 0.0 0.0 0.00 0.00 0.00 93 1017.6
20260905124914 74 0 0.0 0.0 0.00 0.00 0.00 95 1017.6
20260905124410 73 0 0.0 0.0 0.00 0.00 0.00 96 1017.7
20260905123910 72 0 0.0 0.0 0.00 0.00 0.00 98 1017.9
20260905123407 72 0 0.0 0.0 0.00 0.00 0.00 98 1017.7
20260905122902 71 0 0.0 0.0 0.00 0.00 0.00 98 1017.7
20260905122401 71 0 0.0 0.0 0.00 0.00 0.00 98 1017.7
20260905121857 70 0 0.0 0.0 0.00 0.00 0.00 98 1017.5
20260905121353 70 0 0.0 0.0 0.00 0.00 0.00 98 1017.5
20260905120852 70 0 0.0 0.0 0.00 0.00 0.00 98 1017.5
20260905120346 69 0 0.0 0.0 0.00 0.00 0.00 98 1017.6
20260905115841 69 0 0.0 0.0 0.00 0.00 0.00 98 1017.5
20260905115340 69 0 0.0 0.0 0.00 0.00 0.00 98 1017.3
20260905114835 69 0 0.0 0.0 0.00 0.00 0.00 98 1017.2
20260905114334 69 0 0.0 0.0 0.00 0.00 0.00 98 1017.1
20260905113834 69 0 0.0 0.0 0.00 0.00 0.00 98 1017.1
20260905113329 69 0 0.0 0.0 0.00 0.00 0.00 98 1017.3
20260905112825 69 0 0.0 0.0 0.00 0.00 0.00 98 1017.1
20260905112319 68 0 0.0 0.0 0.00 0.00 0.00 98 1017.2
20260905111815 68 1 0.0 0.0 0.00 0.00 0.00 98 1016.9
20260905111309 69 1 0.0 0.0 0.00 0.00 0.00 98 1016.9
20260905110808 69 1 0.0 0.0 0.00 0.00 0.00 98 1016.9
20260905110302 68 1 0.0 0.0 0.00 0.00 0.00 98 1016.8
20260905105758 68 1 0.0 0.0 0.00 0.00 0.00 98 1016.7
20260905105257 68 1 0.0 0.0 0.00 0.00 0.00 98 1016.9
20260905104751 69 1 0.0 0.0 0.00 0.00 0.00 98 1016.7
20260905104248 69 1 0.0 0.0 0.00 0.00 0.00 98 1016.8
20260905103747 69 1 0.0 0.0 0.00 0.00 0.00 98 1016.8
20260905103243 69 1 0.0 0.0 0.00 0.00 0.00 98 1016.6
20260905102738 69 1 0.0 0.0 0.00 0.00 0.00 98 1016.5
20260905102235 69 1 0.0 0.0 0.00 0.00 0.00 98 1016.5
20260905101734 69 1 0.0 0.0 0.00 0.00 0.00 98 1016.6
20260905101232 69 1 0.0 0.0 0.00 0.00 0.00 98 1016.5
20260905100728 69 1 0.0 0.0 0.00 0.00 0.00 98 1016.6
20260905100224 69 1 0.0 0.0 0.00 0.00 0.00 98 1016.4
20260905095718 69 1 0.0 0.0 0.00 0.00 0.00 98 1016.5
20260905095217 69 1 0.0 0.0 0.00 0.00 0.00 98 1016.6
20260905094712 69 2 0.0 0.0 0.00 0.00 0.00 98 1016.5
20260905094207 69 1 0.0 0.0 0.00 0.00 0.00 98 1016.3
20260905093707 69 1 0.0 0.0 0.00 0.00 0.00 98 1016.3
20260905093203 69 2 0.0 0.0 0.00 0.00 0.00 98 1016.5
20260905092658 69 2 0.0 0.0 0.00 0.00 0.00 98 1016.4
20260905092154 69 2 0.0 0.0 0.00 0.00 0.00 98 1016.2
20260905091653 69 2 0.0 0.0 0.00 0.00 0.00 98 1016.3
20260905091154 69 2 0.0 0.0 0.00 0.00 0.00 98 1016.2
20260905090653 69 2 0.0 0.0 0.00 0.00 0.00 98 1016.1
20260905090149 69 2 0.0 0.0 0.00 0.00 0.00 98 1016.2
20260905085648 69 2 0.0 0.0 0.00 0.00 0.00 98 1016.1
20260905085143 69 2 0.0 0.0 0.00 0.00 0.00 98 1016.2
20260905084642 69 2 0.0 0.0 0.00 0.00 0.00 98 1016.3
20260905084137 69 2 0.0 0.0 0.00 0.00 0.00 98 1016.2
20260905083632 69 2 0.0 0.0 0.00 0.00 0.00 98 1016.2
20260905083129 69 2 0.0 0.0 0.00 0.00 0.00 98 1016.3
20260905082624 69 2 0.0 0.0 0.00 0.00 0.00 98 1016.4
20260905082120 69 2 0.0 0.0 0.00 0.00 0.00 98 1016.4
20260905081619 69 2 0.0 0.0 0.00 0.00 0.00 98 1016.4
20260905081114 69 2 0.0 0.0 0.00 0.00 0.00 98 1016.6
20260905080615 69 2 0.0 0.0 0.00 0.00 0.00 98 1016.5
20260905080109 69 2 0.0 0.0 0.00 0.00 0.00 98 1016.4
20260905075608 69 2 0.0 0.0 0.00 0.00 0.00 98 1016.5
20260905075102 69 2 0.0 0.0 0.00 0.00 0.00 98 1016.5
20260905074601 69 2 0.0 0.0 0.00 0.00 0.00 98 1016.5
20260905074057 70 1 0.0 0.0 0.00 0.00 0.00 98 1016.3
20260905073552 70 1 0.0 0.0 0.00 0.00 0.00 97 1016.5
20260905073048 70 2 0.0 0.0 0.00 0.00 0.00 97 1016.5
20260905072547 70 2 0.0 0.0 0.00 0.00 0.00 98 1016.4
20260905072043 70 2 0.0 0.0 0.00 0.00 0.00 98 1016.4
20260905071539 70 2 0.0 0.0 0.00 0.00 0.00 97 1016.4
20260905071034 70 2 0.0 0.0 0.00 0.00 0.00 97 1016.6
20260905070529 70 2 0.0 0.0 0.00 0.00 0.00 97 1016.5
20260905070025 70 2 0.0 0.0 0.00 0.00 0.00 97 1016.5
20260905065523 70 2 0.0 0.0 0.00 0.00 0.00 97 1016.5
20260905065018 70 2 0.0 0.0 0.00 0.00 0.00 97 1016.6
20260905064513 70 2 0.0 0.0 0.00 0.00 0.00 97 1016.7
20260905064008 70 2 0.0 0.0 0.00 0.00 0.00 97 1016.8
20260905063502 70 2 0.0 0.0 0.00 0.00 0.00 97 1016.9
20260905062959 70 2 0.0 0.0 0.00 0.00 0.00 97 1016.7
20260905062458 70 2 0.0 0.0 0.00 0.00 0.00 97 1016.8
20260905061954 70 2 0.0 0.0 0.00 0.00 0.00 97 1016.8
20260905061453 70 2 0.0 0.0 0.00 0.00 0.00 97 1016.7
20260905060952 70 2 0.0 0.0 0.00 0.00 0.00 97 1016.8
20260905060449 70 2 0.0 0.0 0.00 0.00 0.00 97 1016.9
20260905055949 70 2 0.0 0.0 0.00 0.00 0.00 97 1016.9
20260905055448 70 2 0.0 0.0 0.00 0.00 0.00 97 1016.8
20260905054943 70 2 0.0 0.0 0.00 0.00 0.00 97 1017.0
20260905054439 71 2 0.0 0.0 0.00 0.00 0.00 97 1017.0
20260905053939 71 2 0.0 0.0 0.00 0.00 0.00 97 1016.9
20260905053434 71 2 0.0 0.0 0.00 0.00 0.00 97 1016.9
20260905052930 71 2 0.0 0.0 0.00 0.00 0.00 97 1016.8
20260905052428 71 2 0.0 0.0 0.00 0.00 0.00 97 1017.0
20260905051928 71 2 0.0 0.0 0.00 0.00 0.00 97 1017.0
20260905051424 71 2 0.0 0.0 0.00 0.00 0.00 97 1017.1
20260905050921 71 2 0.0 0.0 0.00 0.00 0.00 97 1017.0
20260905050417 71 2 0.0 0.0 0.00 0.00 0.00 97 1017.0
20260905045913 72 2 0.0 0.0 0.00 0.00 0.00 97 1016.9
20260905045408 72 2 0.0 0.0 0.00 0.00 0.00 96 1017.1
20260905044903 72 3 0.0 0.0 0.00 0.00 0.00 96 1017.1